WW5JC Weather Reports


time (UTC)temp
C
wind
direction
speed
KPH
gust
KPH
rain 1hr
cm
rain 24hr
cm
rain mn
cm
humidity
%
barometer
mb
20260505100501 21 198 6.4 9.7 0.00 0.00 0.00 88 1006.0
20260505095958 21 198 14.5 20.9 0.00 0.00 0.00 88 1006.1
20260505095454 21 195 12.9 14.5 0.00 0.00 0.00 88 1006.0
20260505094950 21 193 16.1 17.7 0.00 0.00 0.00 88 1006.1
20260505094448 21 222 14.5 17.7 0.00 0.00 0.00 88 1006.3
20260505093943 21 184 16.1 22.5 0.00 0.00 0.00 88 1006.1
20260505093440 21 192 14.5 17.7 0.00 0.00 0.00 88 1006.2
20260505092937 21 211 11.3 12.9 0.00 0.00 0.00 88 1006.2
20260505092435 21 189 6.4 9.7 0.00 0.00 0.00 88 1006.3
20260505091933 21 194 16.1 17.7 0.00 0.00 0.00 87 1006.3
20260505091430 21 204 8.0 12.9 0.00 0.00 0.00 88 1006.2
20260505090928 21 178 9.7 16.1 0.00 0.00 0.00 87 1006.3
20260505090426 21 189 8.0 9.7 0.00 0.00 0.00 87 1006.1
20260505085923 21 175 6.4 9.7 0.00 0.00 0.00 87 1006.3
20260505085421 21 209 9.7 11.3 0.00 0.00 0.00 87 1006.3
20260505084919 21 197 11.3 14.5 0.00 0.00 0.00 87 1006.1
20260505084416 21 247 14.5 20.9 0.00 0.00 0.00 87 1006.3
20260505083914 21 178 9.7 12.9 0.00 0.00 0.00 86 1006.2
20260505083412 21 183 6.4 9.7 0.00 0.00 0.00 86 1006.4
20260505082908 21 203 9.7 12.9 0.00 0.00 0.00 86 1006.4
20260505082403 21 204 8.0 11.3 0.00 0.00 0.00 86 1006.7
20260505081901 21 205 8.0 9.7 0.00 0.00 0.00 86 1006.6
20260505081357 21 209 11.3 14.5 0.00 0.00 0.00 86 1006.5
20260505080854 21 215 12.9 17.7 0.00 0.00 0.00 86 1006.6
20260505080350 21 171 9.7 11.3 0.00 0.00 0.00 86 1006.7
20260505075846 21 200 8.0 11.3 0.00 0.00 0.00 86 1006.8
20260505075343 21 180 9.7 11.3 0.00 0.00 0.00 86 1006.8
20260505074840 21 178 8.0 11.3 0.00 0.00 0.00 86 1007.0
20260505074337 21 191 9.7 11.3 0.00 0.00 0.00 86 1007.0
20260505073834 21 195 6.4 11.3 0.00 0.00 0.00 86 1006.9
20260505073332 21 185 12.9 16.1 0.00 0.00 0.00 86 1006.9
20260505072829 21 197 9.7 11.3 0.00 0.00 0.00 86 1006.9
20260505072325 21 162 6.4 9.7 0.00 0.00 0.00 86 1006.9
20260505071821 20 194 11.3 12.9 0.00 0.00 0.00 86 1006.9
20260505071318 20 207 6.4 9.7 0.00 0.00 0.00 86 1007.0
20260505070816 20 161 9.7 17.7 0.00 0.00 0.00 86 1007.0
20260505070312 20 186 8.0 11.3 0.00 0.00 0.00 86 1007.1
20260505065807 21 186 4.8 4.8 0.00 0.00 0.00 85 1007.3
20260505065304 21 143 9.7 11.3 0.00 0.00 0.00 85 1007.1
20260505064802 21 198 9.7 11.3 0.00 0.00 0.00 84 1007.3
20260505064258 21 251 8.0 9.7 0.00 0.00 0.00 84 1007.5
20260505063756 21 145 6.4 9.7 0.00 0.00 0.00 84 1007.3
20260505063252 21 161 17.7 22.5 0.00 0.00 0.00 83 1007.3
20260505062749 21 197 14.5 17.7 0.00 0.00 0.00 83 1007.3
20260505062246 21 179 8.0 11.3 0.00 0.00 0.00 83 1007.5
20260505061743 21 189 9.7 11.3 0.00 0.00 0.00 83 1007.7
20260505061241 21 190 11.3 12.9 0.00 0.00 0.00 82 1007.6
20260505060738 21 200 16.1 22.5 0.00 0.00 0.00 82 1007.7
20260505060236 21 176 9.7 14.5 0.00 0.00 0.00 82 1007.7
20260505055730 21 187 9.7 14.5 0.00 0.00 0.00 82 1007.7
20260505055227 21 194 19.3 22.5 0.00 0.00 0.00 81 1007.7
20260505054725 21 191 12.9 17.7 0.00 0.00 0.00 81 1007.6
20260505054222 21 175 11.3 12.9 0.00 0.00 0.00 81 1007.8
20260505053720 21 196 12.9 17.7 0.00 0.00 0.00 81 1007.9
20260505053216 21 199 9.7 16.1 0.00 0.00 0.00 81 1007.8
20260505052714 21 181 4.8 6.4 0.00 0.00 0.00 81 1007.9
20260505052211 21 175 6.4 9.7 0.00 0.00 0.00 81 1007.9
20260505051707 21 188 8.0 11.3 0.00 0.00 0.00 81 1007.9
20260505051205 20 184 6.4 9.7 0.00 0.00 0.00 83 1008.3
20260505050703 20 192 6.4 9.7 0.00 0.00 0.00 83 1008.2
20260505050202 20 179 4.8 6.4 0.00 0.00 0.00 82 1008.0
20260505041636 21 159 3.2 4.8 0.00 0.00 0.00 79 1008.6
20260505041134 20 171 9.7 11.3 0.00 0.00 0.00 79 1008.7
20260505040630 20 151 4.8 4.8 0.00 0.00 0.00 79 1008.8
20260505040128 20 125 3.2 4.8 0.00 0.00 0.00 80 1008.9
20260505035624 20 154 1.6 3.2 0.00 0.00 0.00 79 1008.9
20260505035120 20 179 4.8 6.4 0.00 0.00 0.00 79 1009.0
20260505034617 20 160 3.2 4.8 0.00 0.00 0.00 80 1008.9
20260505034114 20 153 3.2 3.2 0.00 0.00 0.00 80 1009.0
20260505033611 20 154 4.8 4.8 0.00 0.00 0.00 79 1009.0
20260505033109 20 121 3.2 3.2 0.00 0.00 0.00 80 1009.0
20260505032607 20 135 3.2 4.8 0.00 0.00 0.00 78 1008.9
20260505032103 21 162 4.8 6.4 0.00 0.00 0.00 78 1008.9
20260505031601 20 153 6.4 9.7 0.00 0.00 0.00 78 1008.9
20260505031056 20 145 4.8 4.8 0.00 0.00 0.00 78 1009.0
20260505030554 21 156 4.8 6.4 0.00 0.00 0.00 77 1009.0
20260505030049 21 176 6.4 6.4 0.00 0.00 0.00 77 1009.1
20260505025545 21 157 6.4 9.7 0.00 0.00 0.00 77 1009.1
20260505025045 20 164 6.4 9.7 0.00 0.00 0.00 78 1008.9
20260505024541 20 169 6.4 6.4 0.00 0.00 0.00 79 1008.9
20260505024038 20 153 3.2 3.2 0.00 0.00 0.00 79 1008.7
20260505023535 20 165 4.8 6.4 0.00 0.00 0.00 79 1008.9
20260505023033 20 171 6.4 6.4 0.00 0.00 0.00 79 1008.9
20260505022530 20 164 3.2 3.2 0.00 0.00 0.00 79 1008.9
20260505022027 20 165 3.2 3.2 0.00 0.00 0.00 79 1008.9
20260505021524 20 163 3.2 4.8 0.00 0.00 0.00 79 1008.8
20260505021020 20 164 1.6 3.2 0.00 0.00 0.00 78 1008.9
20260505020514 20 157 4.8 6.4 0.00 0.00 0.00 77 1008.8
20260505020012 20 140 3.2 4.8 0.00 0.00 0.00 77 1008.9
20260505015509 21 160 4.8 4.8 0.00 0.00 0.00 75 1008.8
20260505015006 21 164 3.2 4.8 0.00 0.00 0.00 74 1008.7
20260505014503 21 166 6.4 6.4 0.00 0.00 0.00 73 1008.6
20260505014000 21 149 3.2 3.2 0.00 0.00 0.00 73 1008.6
20260505013457 21 171 3.2 3.2 0.00 0.00 0.00 73 1008.8
20260505012954 21 171 4.8 6.4 0.00 0.00 0.00 71 1008.6
20260505012452 21 157 4.8 4.8 0.00 0.00 0.00 71 1008.8
20260505011949 21 156 3.2 3.2 0.00 0.00 0.00 71 1008.6
20260505011444 22 169 3.2 4.8 0.00 0.00 0.00 71 1008.2
20260505010942 22 192 3.2 3.2 0.00 0.00 0.00 71 1008.6
20260505010437 22 179 4.8 4.8 0.00 0.00 0.00 70 1008.3
20260505005933 22 196 6.4 6.4 0.00 0.00 0.00 69 1008.6
20260505005430 22 201 8.0 9.7 0.00 0.00 0.00 68 1008.3
20260505004928 22 143 4.8 6.4 0.00 0.00 0.00 68 1008.5
20260505004424 22 168 6.4 6.4 0.00 0.00 0.00 67 1008.1
20260505003921 23 189 6.4 6.4 0.00 0.00 0.00 66 1007.9
20260505003419 23 191 6.4 6.4 0.00 0.00 0.00 66 1008.3
20260505002915 23 171 8.0 9.7 0.00 0.00 0.00 65 1008.2
20260505002411 23 180 8.0 9.7 0.00 0.00 0.00 64 1008.2
20260505001910 23 154 8.0 9.7 0.00 0.00 0.00 64 1008.6
20260505001407 23 195 8.0 11.3 0.00 0.00 0.00 63 1008.3
20260505000904 24 177 9.7 11.3 0.00 0.00 0.00 62 1008.8
20260505000402 24 185 14.5 16.1 0.00 0.00 0.00 61 1008.5
20260504235858 24 197 6.4 9.7 0.00 0.00 0.00 61 1008.6
20260504235355 24 167 12.9 14.5 0.00 0.00 0.00 60 1008.9
20260504234851 25 197 9.7 12.9 0.00 0.00 0.00 60 1008.9
20260504234349 25 206 17.7 20.9 0.00 0.00 0.00 59 1008.8
20260504233846 25 146 14.5 20.9 0.00 0.00 0.00 59 1008.9
20260504233341 25 164 17.7 24.1 0.00 0.00 0.00 59 1008.9
20260504232838 25 182 11.3 12.9 0.00 0.00 0.00 58 1009.2
20260504232336 25 195 12.9 16.1 0.00 0.00 0.00 59 1009.2
20260504231832 25 145 14.5 16.1 0.00 0.00 0.00 57 1009.2
20260504231329 25 195 14.5 16.1 0.00 0.00 0.00 56 1009.1
20260504230825 25 180 14.5 17.7 0.00 0.00 0.00 55 1009.1
20260504230323 25 169 11.3 16.1 0.00 0.00 0.00 57 1009.1
20260504225822 25 165 16.1 17.7 0.00 0.00 0.00 56 1009.2
20260504225317 25 199 14.5 25.7 0.00 0.00 0.00 55 1009.3
20260504224815 25 202 17.7 27.4 0.00 0.00 0.00 54 1009.4
20260504224312 25 206 16.1 22.5 0.00 0.00 0.00 55 1009.3
20260504223808 25 199 17.7 30.6 0.00 0.00 0.00 54 1009.4
20260504223304 25 197 19.3 22.5 0.00 0.00 0.00 55 1009.2
20260504222801 26 185 19.3 22.5 0.00 0.00 0.00 54 1009.3
20260504222258 25 180 12.9 14.5 0.00 0.00 0.00 56 1009.4
20260504221755 25 197 16.1 17.7 0.00 0.00 0.00 55 1009.5
20260504221252 25 168 16.1 17.7 0.00 0.00 0.00 54 1009.6
20260504220749 25 198 19.3 22.5 0.00 0.00 0.00 53 1009.6
20260504220246 25 174 16.1 22.5 0.00 0.00 0.00 53 1009.8
20260504215743 25 197 12.9 16.1 0.00 0.00 0.00 55 1009.8
20260504215240 25 209 14.5 20.9 0.00 0.00 0.00 54 1010.0
20260504214736 25 159 14.5 16.1 0.00 0.00 0.00 57 1010.0
20260504214232 25 200 14.5 20.9 0.00 0.00 0.00 54 1010.2
20260504213729 26 179 12.9 20.9 0.00 0.00 0.00 54 1010.0
20260504213225 25 157 12.9 16.1 0.00 0.00 0.00 56 1010.3
20260504212723 25 195 17.7 22.5 0.00 0.00 0.00 55 1010.3
20260504212219 25 204 19.3 24.1 0.00 0.00 0.00 54 1010.3
20260504211717 25 189 19.3 25.7 0.00 0.00 0.00 55 1010.5
20260504211213 25 158 22.5 24.1 0.00 0.00 0.00 54 1010.6
20260504210710 25 214 11.3 16.1 0.00 0.00 0.00 55 1010.6
20260504210207 25 175 17.7 20.9 0.00 0.00 0.00 55 1010.9
20260504205704 25 191 9.7 12.9 0.00 0.00 0.00 56 1010.7
20260504205201 25 180 16.1 22.5 0.00 0.00 0.00 55 1010.9
20260504204700 25 207 17.7 22.5 0.00 0.00 0.00 55 1011.1
20260504204159 25 200 11.3 14.5 0.00 0.00 0.00 56 1011.1
20260504203657 25 178 16.1 17.7 0.00 0.00 0.00 56 1011.3
20260504203154 25 191 14.5 16.1 0.00 0.00 0.00 55 1011.5
20260504202649 25 183 9.7 11.3 0.00 0.00 0.00 55 1011.2
20260504202146 25 195 17.7 22.5 0.00 0.00 0.00 52 1011.5
20260504201643 25 156 16.1 20.9 0.00 0.00 0.00 55 1011.7
20260504201140 25 179 14.5 20.9 0.00 0.00 0.00 56 1011.6
20260504200637 25 168 9.7 14.5 0.00 0.00 0.00 56 1011.8
20260504200134 25 184 17.7 24.1 0.00 0.00 0.00 55 1011.8
20260504195630 25 164 9.7 12.9 0.00 0.00 0.00 54 1012.1
20260504195126 25 179 17.7 24.1 0.00 0.00 0.00 53 1012.1
20260504194623 25 217 17.7 20.9 0.00 0.00 0.00 53 1012.2
20260504194119 25 208 11.3 14.5 0.00 0.00 0.00 54 1012.4
20260504193615 25 149 11.3 16.1 0.00 0.00 0.00 53 1012.6
20260504193114 25 173 9.7 12.9 0.00 0.00 0.00 55 1012.5
20260504192612 25 155 14.5 17.7 0.00 0.00 0.00 53 1012.6
20260504192110 24 107 14.5 17.7 0.00 0.00 0.00 54 1012.8
20260504191608 25 183 22.5 27.4 0.00 0.00 0.00 55 1012.8
20260504191103 24 200 17.7 20.9 0.00 0.00 0.00 53 1012.8
20260504190600 24 201 14.5 17.7 0.00 0.00 0.00 55 1012.8
20260504190056 24 179 12.9 16.1 0.00 0.00 0.00 55 1013.1
20260504185553 25 186 11.3 14.5 0.00 0.00 0.00 57 1013.1
20260504185050 25 189 19.3 22.5 0.00 0.00 0.00 53 1013.1
20260504184545 24 235 12.9 16.1 0.00 0.00 0.00 55 1013.1
20260504184040 24 165 17.7 24.1 0.00 0.00 0.00 53 1013.2
20260504183538 24 223 14.5 24.1 0.00 0.00 0.00 55 1013.1
20260504183036 24 214 14.5 17.7 0.00 0.00 0.00 52 1013.4
20260504182532 24 189 19.3 25.7 0.00 0.00 0.00 53 1013.4
20260504182030 23 200 20.9 24.1 0.00 0.00 0.00 52 1013.5
20260504181527 23 135 20.9 27.4 0.00 0.00 0.00 52 1013.6
20260504181026 23 163 19.3 24.1 0.00 0.00 0.00 52 1013.8
20260504180524 23 201 17.7 22.5 0.00 0.00 0.00 52 1013.7
20260504180022 23 150 14.5 16.1 0.00 0.00 0.00 53 1013.8
20260504175519 23 196 14.5 16.1 0.00 0.00 0.00 54 1013.9
20260504175016 23 193 11.3 14.5 0.00 0.00 0.00 54 1014.1
20260504174514 23 184 24.1 29.0 0.00 0.00 0.00 50 1014.3
20260504174011 23 188 19.3 24.1 0.00 0.00 0.00 53 1014.3
20260504173507 23 166 11.3 14.5 0.00 0.00 0.00 51 1014.4
20260504173005 23 184 16.1 24.1 0.00 0.00 0.00 52 1014.5
20260504172501 23 184 17.7 17.7 0.00 0.00 0.00 53 1014.5
20260504171957 23 192 11.3 16.1 0.00 0.00 0.00 54 1014.5
20260504171454 23 202 14.5 20.9 0.00 0.00 0.00 53 1014.5
20260504170951 23 214 19.3 27.4 0.00 0.00 0.00 51 1014.6
20260504170447 23 175 17.7 29.0 0.00 0.00 0.00 52 1014.7
20260504160407 22 203 11.3 14.5 0.00 0.00 0.00 57 1015.3
20260504150831 21 191 22.5 27.4 0.00 0.00 0.00 62 1015.5
20260504150328 21 186 22.5 27.4 0.00 0.00 0.00 62 1015.7
20260504141258 19 198 16.1 22.5 0.00 0.00 0.00 68 1015.5
20260504140754 19 188 22.5 27.4 0.00 0.00 0.00 66 1015.5
20260504140250 18 200 9.7 11.3 0.00 0.00 0.00 69 1015.6
20260504130719 16 175 11.3 14.5 0.00 0.00 0.00 79 1015.6
20260504130214 16 218 11.3 12.9 0.00 0.00 0.00 79 1015.5
20260504120139 14 185 4.8 4.8 0.00 0.00 0.00 85 1015.3
20260504110606 14 201 4.8 4.8 0.00 0.00 0.00 84 1015.3